Weather History for Omaha, NE

Change the Weather History Date:

Monday, August 11, 2014

  Actual Average Record
Temperature  
Mean Temperature 68 °F 76 °F  
Max Temperature 78 °F 86 °F 103 °F (1935)
Min Temperature 58 °F 65 °F 50 °F (1964)
Degree Days  
Heating Degree Days 0 0  
Month to date heating degree days 0 0  
Since 1 June heating degree days 10 18  
Since 1 July heating degree days 4 1  
Cooling Degree Days 3 11  
Month to date cooling degree days 106 121  
Year to date cooling degree days 797 798  
Since 1 June cooling degree days 654 716  
Growing Degree Days 21 (Base 50)    
Moisture  
Dew Point 59 °F    
Average Humidity 68    
Maximum Humidity 93    
Minimum Humidity 42    
Precipitation  
Precipitation 0.00 in 0.12 in 1.44 in (1940)
Month to date precipitation 2.08 1.37  
Year to date precipitation 21.14 20.66  
Snow  
Snow 0.00 in 0.00 in - ()
Month to date snowfall 0.0 0.0  
Since 1 July snowfall 0.0 0.0  
Snow Depth 0.00 in    
Sea Level Pressure  
Sea Level Pressure 30.08 in    
Wind  
Wind Speed 11 mph (NNW)    
Max Wind Speed 24 mph    
Max Gust Speed 30 mph    
Visibility 8 miles    
Events Fog    
T = Trace of Precipitation, MM = Missing Value Source: NWS Daily Summary

Daily Weather History Graph

Daily Weather History Graph

Search for Another Location

Airport:

Trip Planner

Search our weather history database for the weather conditions in past years. The results will help you decide how hot, cold, wet, or windy it might be!

Date:

Astronomy

Aug. 11, 2014 Rise Set
Actual Time 6:28 AM CDT 8:28 PM CDT
Civil Twilight 5:58 AM CDT 8:58 PM CDT
Nautical Twilight 5:21 AM CDT 9:34 PM CDT
Astronomical Twilight 4:41 AM CDT 10:14 PM CDT
Moon 8:55 PM CDT (8/11) 7:36 AM CDT (8/11)
Length of Visible Light 14h 59m
Length of Day
13h 59m
Full, 99% of the Moon is Illuminated
Aug 11
Full
Aug 17
Last Quarter
Aug 25
New
Sep 2
First Quarter
Sep 8
Full

Hourly Weather History & Observations

Time (CDT) Temp. Dew Point Humidity Pressure Visibility Wind Dir Wind Speed Gust Speed Precip Events Conditions
12:52 AM 68.0 °F 66.0 °F 93% 30.05 in 6.0 mi NNW 5.8 mph - N/A   Partly Cloudy
1:52 AM 68.0 °F 66.0 °F 93% 30.05 in 6.0 mi North 4.6 mph - N/A   Scattered Clouds
2:52 AM 66.9 °F 64.9 °F 93% 30.05 in 6.0 mi North 4.6 mph - N/A   Partly Cloudy
3:52 AM 66.9 °F 64.9 °F 93% 30.05 in 6.0 mi NNW 6.9 mph - N/A   Partly Cloudy
4:15 AM 68.0 °F 64.9 °F 90% 30.07 in 6.0 mi North 4.6 mph - N/A   Partly Cloudy
4:52 AM 68.0 °F 64.9 °F 90% 30.06 in 6.0 mi North 4.6 mph - N/A   Mostly Cloudy
5:52 AM 66.9 °F 64.0 °F 90% 30.06 in 6.0 mi North 5.8 mph - N/A   Partly Cloudy
6:52 AM 66.9 °F 64.0 °F 90% 30.06 in 7.0 mi NNW 8.1 mph - N/A Fog Patches of Fog
7:52 AM 68.0 °F 64.0 °F 87% 30.08 in 7.0 mi NNW 11.5 mph - N/A   Partly Cloudy
8:52 AM 70.0 °F 61.0 °F 73% 30.09 in 7.0 mi North 13.8 mph - N/A   Partly Cloudy
9:52 AM 70.0 °F 59.0 °F 68% 30.11 in 7.0 mi NNW 13.8 mph - N/A   Partly Cloudy
10:52 AM 73.0 °F 57.9 °F 59% 30.12 in 10.0 mi NNW 17.3 mph 24.2 mph N/A   Scattered Clouds
11:52 AM 73.9 °F 55.9 °F 53% 30.12 in 10.0 mi NNW 18.4 mph - N/A   Scattered Clouds
12:52 PM 75.0 °F 54.0 °F 48% 30.12 in 10.0 mi NNW 20.7 mph 28.8 mph N/A   Scattered Clouds
1:52 PM 75.9 °F 57.0 °F 52% 30.11 in 10.0 mi NNW 13.8 mph 24.2 mph N/A   Scattered Clouds
2:52 PM 78.1 °F 54.0 °F 43% 30.10 in 10.0 mi NNW 13.8 mph - N/A   Scattered Clouds
3:52 PM 78.1 °F 55.0 °F 45% 30.09 in 10.0 mi NNW 15.0 mph - N/A   Scattered Clouds
4:52 PM 77.0 °F 54.0 °F 45% 30.08 in 10.0 mi North 16.1 mph - N/A   Scattered Clouds
5:52 PM 77.0 °F 54.0 °F 45% 30.09 in 10.0 mi NW 17.3 mph - N/A   Scattered Clouds
6:52 PM 75.9 °F 55.0 °F 48% 30.08 in 10.0 mi NNW 12.7 mph - N/A   Partly Cloudy
7:52 PM 72.0 °F 55.9 °F 57% 30.08 in 10.0 mi NW 9.2 mph - N/A   Partly Cloudy
8:52 PM 66.9 °F 55.9 °F 68% 30.08 in 10.0 mi NW 8.1 mph - N/A   Partly Cloudy
9:52 PM 64.9 °F 57.9 °F 78% 30.10 in 10.0 mi NNE 4.6 mph - N/A   Clear
10:52 PM 64.9 °F 57.0 °F 75% 30.11 in 10.0 mi North 3.5 mph - N/A   Clear
11:52 PM 61.0 °F 55.0 °F 81% 30.12 in 10.0 mi North 5.8 mph - N/A   Clear